����,���ϕ���(m/s),���ϕ���,�ő�u�ԕ���(m/s),�ő啗��������,�C��(��),���x(%),10���Ԉړ��ώZ�J��(mm),1���Ԉړ��ώZ�J��(mm),���J��(mm),�݌v�J��(mm)
2023-03-13T00:00:00+09:00,2,�k,6.7,���쐼,14.6,77.7,1.5,1.5,1.5,1.5
2023-03-13T00:01:00+09:00,2.2,�k,6.7,���쐼,14.5,78.2,1.5,1.5,0,1.5
2023-03-13T00:02:00+09:00,2.2,�k,6.7,���쐼,14.5,78.9,1.5,1.5,0,1.5
2023-03-13T00:03:00+09:00,2.2,�k,6.7,���쐼,14.4,79.2,1,1.5,0,1.5
2023-03-13T00:04:00+09:00,2.2,�k,6.7,���쐼,14.4,79.6,1,1.5,0,1.5
2023-03-13T00:05:00+09:00,2.3,�k�k��,6.7,���쐼,14.5,80.1,1,1.5,0,1.5
2023-03-13T00:06:00+09:00,2.3,�k�k��,6.7,���쐼,14.6,80.2,0.5,1.5,0,1.5
2023-03-13T00:07:00+09:00,2.4,�k�k��,6.7,���쐼,14.7,79.4,1,2,0.5,2
2023-03-13T00:08:00+09:00,2.4,�k�k��,6.7,���쐼,14.6,78.7,0.5,2,0.5,2
2023-03-13T00:09:00+09:00,2.6,�k�k��,7,�k,14.6,78.5,0.5,2,0.5,2
2023-03-13T00:10:00+09:00,2.7,�k,7,�k,14.6,78.5,0.5,2,0.5,2
2023-03-13T00:11:00+09:00,2.7,�k,7,�k,14.6,78.3,0.5,2,0.5,2
2023-03-13T00:12:00+09:00,2.9,�k,7,�k,14.6,78.5,0.5,2,0.5,2
2023-03-13T00:13:00+09:00,3.1,�k�k��,7,�k,14.7,78.6,0.5,2,0.5,2
2023-03-13T00:14:00+09:00,3.2,�k�k��,7,�k,14.9,78.6,0.5,2,0.5,2
2023-03-13T00:15:00+09:00,3.3,�k�k��,7,�k,14.9,78.1,0.5,2,0.5,2
2023-03-13T00:16:00+09:00,3.2,�k�k��,7,�k,14.9,77.1,0.5,2,0.5,2
2023-03-13T00:17:00+09:00,3.1,�k�k��,7,�k,14.9,77,0,2,0.5,2
2023-03-13T00:18:00+09:00,3.1,�k��,7,�k,15,76.8,0,2,0.5,2
2023-03-13T00:19:00+09:00,2.8,�k��,5.5,��,15,76.5,0,2,0.5,2
2023-03-13T00:20:00+09:00,2.9,�k��,9.2,���k��,15,76.5,0,2,0.5,2
2023-03-13T00:21:00+09:00,3.1,�k��,9.2,���k��,15.1,76.3,0,2,0.5,2
2023-03-13T00:22:00+09:00,3,���k��,9.2,���k��,15.1,75.9,0,2,0.5,2
2023-03-13T00:23:00+09:00,3,���k��,9.2,���k��,15.1,75.7,0,2,0.5,2
2023-03-13T00:24:00+09:00,3,���k��,9.2,���k��,15,75.9,0,2,0.5,2
2023-03-13T00:25:00+09:00,2.9,���k��,9.2,���k��,15,75.9,0,2,0.5,2
2023-03-13T00:26:00+09:00,2.8,���k��,9.2,���k��,15.1,76,0,2,0.5,2
2023-03-13T00:27:00+09:00,2.8,���k��,9.2,���k��,15.1,75.3,0,2,0.5,2
2023-03-13T00:28:00+09:00,3,�k��,9.2,���k��,15,75.2,0,2,0.5,2
2023-03-13T00:29:00+09:00,3.2,�k��,9.2,���k��,15,75.3,0,2,0.5,2
2023-03-13T00:30:00+09:00,3.1,�k��,7.5,��,15,75.5,0,2,0.5,2
2023-03-13T00:31:00+09:00,3.1,�k�k��,5.5,��,15.1,75.5,0,2,0.5,2
2023-03-13T00:32:00+09:00,3,�k�k��,5.2,��,15.2,74.8,0,2,0.5,2
2023-03-13T00:33:00+09:00,3,�k�k��,5.1,�k,15.3,74.8,0,2,0.5,2
2023-03-13T00:34:00+09:00,3,�k�k��,5.1,�k,15.3,74.3,0,2,0.5,2
2023-03-13T00:35:00+09:00,3,�k,5.1,�k,15.3,73.7,0,2,0.5,2
2023-03-13T00:36:00+09:00,3.1,�k,5.1,�k,15.2,73.3,0,2,0.5,2
2023-03-13T00:37:00+09:00,3.1,�k,5.1,�k,15.1,73.8,0,2,0.5,2
2023-03-13T00:38:00+09:00,3,�k�k��,5.9,��,15.1,74.3,0,2,0.5,2
2023-03-13T00:39:00+09:00,3.1,�k�k��,6.5,���k��,15.2,74.6,0,2,0.5,2
2023-03-13T00:40:00+09:00,3,�k��,6.5,���k��,15.3,74.3,0,2,0.5,2
2023-03-13T00:41:00+09:00,2.9,�k��,6.5,���k��,15.5,73.1,0,2,0.5,2
2023-03-13T00:42:00+09:00,2.8,�k��,6.5,���k��,15.6,71.6,0,2,0.5,2
2023-03-13T00:43:00+09:00,2.8,�k��,6.5,���k��,15.7,70.2,0,2,0.5,2
2023-03-13T00:44:00+09:00,2.8,�k��,6.5,���k��,15.7,69.4,0,2,0.5,2
2023-03-13T00:45:00+09:00,2.8,�k��,6.5,���k��,15.7,68.9,0,2,0.5,2
2023-03-13T00:46:00+09:00,2.7,�k��,6.5,���k��,15.7,68.9,0,2,0.5,2
2023-03-13T00:47:00+09:00,2.9,�k��,6.5,���k��,15.6,68.7,0,2,0.5,2
2023-03-13T00:48:00+09:00,2.8,�k�k��,6.5,���k��,15.7,68.3,0,2,0.5,2
2023-03-13T00:49:00+09:00,2.6,�k�k��,6.4,���쓌,15.7,67.6,0,2,0.5,2
2023-03-13T00:50:00+09:00,2.7,�k�k��,6.4,���쓌,15.6,67.5,0,2,0.5,2
2023-03-13T00:51:00+09:00,2.9,�k�k��,7.4,�k��,15.6,67.9,0,2,0.5,2
2023-03-13T00:52:00+09:00,3.2,�k�k��,8.2,�k,15.7,68.7,0,2,0.5,2
2023-03-13T00:53:00+09:00,3.3,�k�k��,8.2,�k,15.7,68.8,0,1.5,0.5,2
2023-03-13T00:54:00+09:00,3.4,�k�k��,8.2,�k,15.6,68.7,0,1.5,0.5,2
2023-03-13T00:55:00+09:00,3.5,�k�k��,8.2,�k,15.7,68.7,0,1.5,0.5,2
2023-03-13T00:56:00+09:00,3.7,�k,8.2,�k,15.8,68.8,0,1,0.5,2
2023-03-13T00:57:00+09:00,3.6,�k,8.2,�k,15.7,69,0,1,0.5,2
2023-03-13T00:58:00+09:00,3.7,�k�k��,8.2,�k,15.7,69.4,0,0.5,0.5,2
2023-03-13T00:59:00+09:00,3.7,�k�k��,8.2,�k,15.6,69.5,0,0.5,0.5,2
2023-03-13T01:00:00+09:00,3.7,�k�k��,8.2,�k,15.5,70,0,0.5,0.5,2
2023-03-13T01:01:00+09:00,3.5,�k,8.2,�k,15.5,70.4,0,0.5,0.5,2
2023-03-13T01:02:00+09:00,3.2,�k,6.8,�k,15.5,70.1,0,0.5,0.5,2
2023-03-13T01:03:00+09:00,3,�k,5.7,�k��,15.6,69.7,0,0.5,0.5,2
2023-03-13T01:04:00+09:00,2.8,�k,5.7,�k��,15.6,69.4,0,0.5,0.5,2
2023-03-13T01:05:00+09:00,2.9,�k,6.4,�k�k��,15.7,69.2,0,0.5,0.5,2
2023-03-13T01:06:00+09:00,2.8,�k�k��,6.4,�k�k��,15.7,69.4,0,0.5,0.5,2
2023-03-13T01:07:00+09:00,2.5,�k��,6.4,�k�k��,15.6,69.2,0,0,0.5,2
2023-03-13T01:08:00+09:00,2.4,�k��,6.4,�k�k��,15.6,69.1,0,0,0.5,2
2023-03-13T01:09:00+09:00,2.5,�k�k��,6.4,�k�k��,15.6,69.5,0,0,0.5,2
2023-03-13T01:10:00+09:00,2.3,�k�k��,6.4,�k�k��,15.8,69.4,0,0,0.5,2
2023-03-13T01:11:00+09:00,2.3,�k�k��,6.4,�k�k��,15.7,69,0,0,0.5,2
2023-03-13T01:12:00+09:00,2.5,�k�k��,6.4,�k�k��,15.7,69.1,0,0,0.5,2
2023-03-13T01:13:00+09:00,2.6,�k,6.4,�k�k��,15.6,69,0,0,0.5,2
2023-03-13T01:14:00+09:00,2.6,�k,6.4,�k�k��,15.7,69.1,0,0,0.5,2
2023-03-13T01:15:00+09:00,2.3,�k,5.7,�k�k��,15.7,69.1,0,0,0.5,2
2023-03-13T01:16:00+09:00,2.5,�k,6.4,�k,15.6,69.1,0,0,0.5,2
2023-03-13T01:17:00+09:00,2.8,�k,6.8,�k��,15.7,69.1,0,0,0.5,2
2023-03-13T01:18:00+09:00,2.8,�k,6.8,�k��,15.6,69.2,0,0,0.5,2
2023-03-13T01:19:00+09:00,2.9,�k�k��,6.8,�k��,15.6,69.5,0,0,0.5,2
2023-03-13T01:20:00+09:00,3,�k�k��,6.8,�k��,15.6,69.6,0,0,0.5,2
2023-03-13T01:21:00+09:00,3.5,�k�k��,11.1,�k�k��,15.7,69.6,0,0,0.5,2
2023-03-13T01:22:00+09:00,3.9,�k�k��,11.4,���쐼,15.6,70,0,0,0.5,2
2023-03-13T01:23:00+09:00,3.8,�k�k��,11.4,���쐼,15.6,70.4,0,0,0.5,2
2023-03-13T01:24:00+09:00,3.7,�k�k��,11.4,���쐼,15.6,70.7,0,0,0.5,2
2023-03-13T01:25:00+09:00,3.8,�k,11.4,���쐼,15.5,70.9,0,0,0.5,2
2023-03-13T01:26:00+09:00,3.7,�k,11.4,���쐼,15.4,71.4,0,0,0.5,2
2023-03-13T01:27:00+09:00,3.6,�k,11.4,���쐼,15.4,72,0,0,0.5,2
2023-03-13T01:28:00+09:00,3.6,�k,11.4,���쐼,15.4,72.4,0,0,0.5,2
2023-03-13T01:29:00+09:00,3.4,�k,11.4,���쐼,15.4,72.5,0,0,0.5,2
2023-03-13T01:30:00+09:00,3.3,�k,11.4,���쐼,15.3,72.5,0,0,0.5,2
2023-03-13T01:31:00+09:00,3.2,�k,11.4,���쐼,15.3,72.7,0,0,0.5,2
2023-03-13T01:32:00+09:00,3.1,�k�k��,9.9,�쓌,15.4,72.8,0,0,0.5,2
2023-03-13T01:33:00+09:00,3.4,�k��,10.1,�쓌,15.5,72.5,0,0,0.5,2
2023-03-13T01:34:00+09:00,3.6,�k��,10.1,�쓌,15.6,71.8,0,0,0.5,2
2023-03-13T01:35:00+09:00,3.7,���k��,10.1,�쓌,15.6,70.9,0,0,0.5,2
2023-03-13T01:36:00+09:00,3.7,��,10.1,�쓌,15.6,70.4,0,0,0.5,2
2023-03-13T01:37:00+09:00,3.6,��,10.7,��,15.6,70.4,0,0,0.5,2
2023-03-13T01:38:00+09:00,3.7,��,10.7,��,15.6,70.8,0,0,0.5,2
2023-03-13T01:39:00+09:00,3.6,���쓌,10.7,��,15.6,71,0,0,0.5,2
2023-03-13T01:40:00+09:00,3.6,���쓌,10.7,��,15.6,70.9,0,0,0.5,2
2023-03-13T01:41:00+09:00,3.7,���쓌,10.7,��,15.6,70.9,0,0,0.5,2
2023-03-13T01:42:00+09:00,3.5,���쓌,10.7,��,15.6,71.2,0,0,0.5,2
2023-03-13T01:43:00+09:00,3.6,���쓌,10.7,��,15.6,71.3,0,0,0.5,2
2023-03-13T01:44:00+09:00,4.1,���쓌,14.4,���쓌,15.5,71.6,0,0,0.5,2
2023-03-13T01:45:00+09:00,4.7,���쓌,14.4,���쓌,15.6,71.7,0,0,0.5,2
2023-03-13T01:46:00+09:00,4.9,���쓌,14.4,���쓌,15.5,71.8,0,0,0.5,2
2023-03-13T01:47:00+09:00,5.2,���쓌,14.4,���쓌,15.4,72.2,0,0,0.5,2
2023-03-13T01:48:00+09:00,5.1,���쓌,14.4,���쓌,15.3,72.9,0,0,0.5,2
2023-03-13T01:49:00+09:00,5.4,���쓌,14.4,���쓌,15.3,73.5,0,0,0.5,2
2023-03-13T01:50:00+09:00,5.5,���쓌,14.4,���쓌,15.3,74.1,0,0,0.5,2
2023-03-13T01:51:00+09:00,5.4,���쓌,14.4,���쓌,15.2,74.3,0,0,0.5,2
2023-03-13T01:52:00+09:00,5.4,���쓌,14.4,���쓌,15.2,74.6,0,0,0.5,2
2023-03-13T01:53:00+09:00,5.5,���쓌,14.4,���쓌,15.2,74.7,0,0,0.5,2
2023-03-13T01:54:00+09:00,5.4,���쓌,13.9,�쓌,15.3,74.9,0,0,0.5,2
2023-03-13T01:55:00+09:00,5.3,���쓌,13.9,�쓌,15.3,74.9,0,0,0.5,2
2023-03-13T01:56:00+09:00,5.2,���쓌,13.9,�쓌,15.4,74.4,0,0,0.5,2
2023-03-13T01:57:00+09:00,5.1,���쓌,13.9,�쓌,15.4,74,0,0,0.5,2
2023-03-13T01:58:00+09:00,5.1,���쓌,13.9,�쓌,15.3,73.7,0,0,0.5,2
2023-03-13T01:59:00+09:00,4.9,���쓌,13.9,�쓌,15.3,73.9,0,0,0.5,2
2023-03-13T02:00:00+09:00,4.7,���쓌,13.9,�쓌,15.2,74.4,0,0,0.5,2
2023-03-13T02:01:00+09:00,4.5,���쓌,13.9,�쓌,15.3,74.6,0,0,0.5,2
2023-03-13T02:02:00+09:00,4.3,���쓌,13.9,�쓌,15.2,74.5,0,0,0.5,2
2023-03-13T02:03:00+09:00,4.2,�쓌,13.9,�쓌,15.1,74.7,0.5,0.5,1,2.5
2023-03-13T02:04:00+09:00,4,�쓌,13.1,���쓌,15,75.4,1.5,1.5,2,3.5
2023-03-13T02:05:00+09:00,3.6,�쓌,12.2,��쓌,14.6,76.3,2,2,2.5,4
2023-03-13T02:06:00+09:00,3.6,�쓌,12.2,��쓌,14.5,77.9,2,2,2.5,4
2023-03-13T02:07:00+09:00,3.9,��쓌,12.2,��쓌,14.5,79.1,2,2,2.5,4
2023-03-13T02:08:00+09:00,4.1,��쓌,12.2,��쓌,14.3,80.1,2,2,2.5,4
2023-03-13T02:09:00+09:00,4.1,��,12.2,��쓌,14.2,80.7,2,2,2.5,4
2023-03-13T02:10:00+09:00,4.9,��,12.9,�쐼,14.2,81.4,2.5,2.5,3,4.5
2023-03-13T02:11:00+09:00,5.1,��,12.9,�쐼,14.1,82.2,2.5,2.5,3,4.5
2023-03-13T02:12:00+09:00,5.2,��쐼,12.9,�쐼,14.1,82.8,2.5,2.5,3,4.5
2023-03-13T02:13:00+09:00,5.2,��쐼,12.9,�쐼,14,83.4,2,2.5,3,4.5
2023-03-13T02:14:00+09:00,5.1,��쐼,12.9,�쐼,14,83.8,1,2.5,3,4.5
2023-03-13T02:15:00+09:00,5.3,�쐼,12.9,�쐼,13.9,84.3,0.5,2.5,3,4.5
2023-03-13T02:16:00+09:00,5.3,�쐼,12.9,�쐼,13.9,84.7,0.5,2.5,3,4.5
2023-03-13T02:17:00+09:00,5.1,�쐼,12.9,�쐼,13.8,85,0.5,2.5,3,4.5
2023-03-13T02:18:00+09:00,4.8,�쐼,12.9,�쐼,13.8,85.5,1,3,3.5,5
2023-03-13T02:19:00+09:00,4.9,�쐼,12.9,�쐼,13.8,85.9,1,3,3.5,5
2023-03-13T02:20:00+09:00,4.4,�쐼,9,��쐼,13.8,86,0.5,3,3.5,5
2023-03-13T02:21:00+09:00,4.6,�쐼,9.6,���쐼,13.8,86.3,0.5,3,3.5,5
2023-03-13T02:22:00+09:00,4.6,�쐼,9.6,���쐼,13.9,86.6,0.5,3,3.5,5
2023-03-13T02:23:00+09:00,4.3,�쐼,9.6,���쐼,13.9,86.7,0.5,3,3.5,5
2023-03-13T02:24:00+09:00,4,�쐼,9.6,���쐼,13.8,86.5,0.5,3,3.5,5
2023-03-13T02:25:00+09:00,3.7,�쐼,9.6,���쐼,13.8,86.7,0.5,3,3.5,5
2023-03-13T02:26:00+09:00,3.7,�쐼,9.6,���쐼,13.8,86.6,0.5,3,3.5,5
2023-03-13T02:27:00+09:00,3.7,�쐼,9.6,���쐼,13.8,86.7,0.5,3,3.5,5
2023-03-13T02:28:00+09:00,3.7,�쐼,9.6,���쐼,13.7,86.6,0.5,3.5,4,5.5
2023-03-13T02:29:00+09:00,3.6,�쐼,9.6,���쐼,13.6,86.6,0.5,3.5,4,5.5
2023-03-13T02:30:00+09:00,3.5,�쐼,9.6,���쐼,13.6,86.9,0.5,3.5,4,5.5
2023-03-13T02:31:00+09:00,3.2,�쐼,7.4,���쐼,13.6,87.1,0.5,3.5,4,5.5
2023-03-13T02:32:00+09:00,2.9,�쐼,7.2,���쐼,13.6,87.3,0.5,3.5,4,5.5
2023-03-13T02:33:00+09:00,3.2,�쐼,7.2,���쐼,13.6,87.4,0.5,3.5,4,5.5
2023-03-13T02:34:00+09:00,3.4,��쐼,7.2,���쐼,13.6,87.6,0.5,3.5,4,5.5
2023-03-13T02:35:00+09:00,3.5,��쐼,7.2,���쐼,13.6,87.5,0.5,3.5,4,5.5
2023-03-13T02:36:00+09:00,3.6,��쐼,7.1,��쐼,13.5,87.6,0.5,3.5,4,5.5
2023-03-13T02:37:00+09:00,3.5,��쐼,7.1,��쐼,13.5,87.6,0.5,3.5,4,5.5
2023-03-13T02:38:00+09:00,3.6,��쐼,7.1,��쐼,13.5,87.7,0.5,4,4.5,6
2023-03-13T02:39:00+09:00,3.8,��쐼,7.1,��쐼,13.5,87.7,0.5,4,4.5,6
2023-03-13T02:40:00+09:00,3.9,�쐼,7.2,���쐼,13.5,87.9,0.5,4,4.5,6
2023-03-13T02:41:00+09:00,4,�쐼,7.2,���쐼,13.5,88.1,0.5,4,4.5,6
2023-03-13T02:42:00+09:00,4.2,�쐼,7.2,���쐼,13.4,88,0.5,4,4.5,6
2023-03-13T02:43:00+09:00,4.4,�쐼,9,�쐼,13.5,88,0.5,4,4.5,6
2023-03-13T02:44:00+09:00,4.7,�쐼,9.6,���쐼,13.5,88.1,1,4.5,5,6.5
2023-03-13T02:45:00+09:00,5,�쐼,9.6,���쐼,13.5,88.2,1,4.5,5,6.5
2023-03-13T02:46:00+09:00,5.2,�쐼,12.4,���쐼,13.6,88.3,1,4.5,5,6.5
2023-03-13T02:47:00+09:00,5.4,���쐼,12.4,���쐼,13.5,88.4,1,4.5,5,6.5
2023-03-13T02:48:00+09:00,5.5,���쐼,12.4,���쐼,13.5,88.2,0.5,4.5,5,6.5
2023-03-13T02:49:00+09:00,5.9,���쐼,16.1,��,13.4,88,1,5,5.5,7
2023-03-13T02:50:00+09:00,6.2,���쐼,16.1,��,13.2,86.9,1,5,5.5,7
2023-03-13T02:51:00+09:00,6.7,���쐼,16.1,��,12.9,85.4,1,5,5.5,7
2023-03-13T02:52:00+09:00,7.6,���쐼,19.1,���쐼,12.6,84,1,5,5.5,7
2023-03-13T02:53:00+09:00,8.1,���쐼,19.1,���쐼,12.4,83.7,1,5,5.5,7
2023-03-13T02:54:00+09:00,8.2,���쐼,19.1,���쐼,12.4,83,0.5,5,5.5,7
2023-03-13T02:55:00+09:00,8.5,���쐼,19.1,���쐼,12.3,81.9,1,5.5,6,7.5
2023-03-13T02:56:00+09:00,8.6,���쐼,19.1,���쐼,12.2,80.3,1,5.5,6,7.5
2023-03-13T02:57:00+09:00,8.8,���쐼,19.1,���쐼,12.1,79.5,1,5.5,6,7.5
2023-03-13T02:58:00+09:00,9.1,���쐼,19.1,���쐼,12.1,78.6,1,5.5,6,7.5
2023-03-13T02:59:00+09:00,8.8,���쐼,19.1,���쐼,12,78,0.5,5.5,6,7.5
2023-03-13T03:00:00+09:00,8.7,���쐼,19.1,���쐼,11.9,77.6,0.5,5.5,6,7.5
2023-03-13T03:01:00+09:00,8.3,���쐼,19.1,���쐼,11.8,77.7,0.5,5.5,6,7.5
2023-03-13T03:02:00+09:00,7.7,���쐼,16,���쐼,11.8,77.6,0.5,5.5,6,7.5
2023-03-13T03:03:00+09:00,7.2,���쐼,15.4,���쐼,11.8,77.8,0.5,5,6,7.5
2023-03-13T03:04:00+09:00,7.1,���쐼,15.4,���쐼,11.7,77.8,0.5,4,6,7.5
2023-03-13T03:05:00+09:00,6.6,�쐼,12.5,�쐼,11.6,77.6,0,3.5,6,7.5
2023-03-13T03:06:00+09:00,6.6,�쐼,12.5,�쐼,11.7,77.6,0,3.5,6,7.5
2023-03-13T03:07:00+09:00,6.2,�쐼,12.5,�쐼,11.7,77.7,0,3.5,6,7.5
2023-03-13T03:08:00+09:00,5.7,�쐼,12.5,�쐼,11.6,77.5,0,3.5,6,7.5
2023-03-13T03:09:00+09:00,5.5,�쐼,12.5,�쐼,11.7,77.5,0,3.5,6,7.5
2023-03-13T03:10:00+09:00,5.3,�쐼,12.5,�쐼,11.5,77.4,0,3,6,7.5
2023-03-13T03:11:00+09:00,5.2,�쐼,12.5,�쐼,11.6,77.5,0,3,6,7.5
2023-03-13T03:12:00+09:00,5.1,�쐼,9.3,�쐼,11.5,77.7,0,3,6,7.5
2023-03-13T03:13:00+09:00,5,�쐼,9.3,�쐼,11.5,77.6,0,3,6,7.5
2023-03-13T03:14:00+09:00,4.9,�쐼,9.3,�쐼,11.3,77.9,0,3,6,7.5
2023-03-13T03:15:00+09:00,4.9,�쐼,9.3,�쐼,11.2,78.4,0,3,6,7.5
2023-03-13T03:16:00+09:00,4.8,�쐼,10.1,��쐼,11.1,79.2,0,3,6,7.5
2023-03-13T03:17:00+09:00,5.1,�쐼,10.1,��쐼,11.1,79.6,0,3,6,7.5
2023-03-13T03:18:00+09:00,5.2,�쐼,10.1,��쐼,11,80,0,2.5,6,7.5
2023-03-13T03:19:00+09:00,5.3,��쐼,10.1,��쐼,11,80.4,0,2.5,6,7.5
2023-03-13T03:20:00+09:00,5.1,��쐼,10.1,��쐼,10.9,80.6,0,2.5,6,7.5
2023-03-13T03:21:00+09:00,4.8,��쐼,10.1,��쐼,10.9,81,0,2.5,6,7.5
2023-03-13T03:22:00+09:00,4.5,��쐼,10.1,��쐼,10.8,81.2,0,2.5,6,7.5
2023-03-13T03:23:00+09:00,4.4,��쐼,10.1,��쐼,10.8,81.4,0,2.5,6,7.5
2023-03-13T03:24:00+09:00,4.4,��쐼,10.1,��쐼,10.8,81.6,0,2.5,6,7.5
2023-03-13T03:25:00+09:00,4.3,��쐼,10.1,��쐼,10.8,81.7,0,2.5,6,7.5
2023-03-13T03:26:00+09:00,4.2,��쐼,9.4,���쐼,10.9,81.4,0,2.5,6,7.5
2023-03-13T03:27:00+09:00,4,��쐼,9.4,���쐼,11,81.1,0,2.5,6,7.5
2023-03-13T03:28:00+09:00,4.1,��쐼,9.4,���쐼,11,80.7,0,2,6,7.5
2023-03-13T03:29:00+09:00,4,�쐼,9.4,���쐼,10.9,79.4,0,2,6,7.5
2023-03-13T03:30:00+09:00,4.3,�쐼,9.4,���쐼,10.9,79,0,2,6,7.5
2023-03-13T03:31:00+09:00,4.5,�쐼,9.4,���쐼,11,79,0,2,6,7.5
2023-03-13T03:32:00+09:00,4.6,�쐼,9.4,���쐼,10.9,78.6,0,2,6,7.5
2023-03-13T03:33:00+09:00,4.5,�쐼,9.4,���쐼,10.7,78.3,0,2,6,7.5
2023-03-13T03:34:00+09:00,4.2,�쐼,9.4,���쐼,10.7,78.9,0,2,6,7.5
2023-03-13T03:35:00+09:00,4.1,�쐼,9.4,���쐼,10.6,79.8,0,2,6,7.5
2023-03-13T03:36:00+09:00,3.8,�쐼,8.4,���쐼,10.6,80.4,0,2,6,7.5
2023-03-13T03:37:00+09:00,3.5,��쐼,8.4,���쐼,10.5,80.4,0,2,6,7.5
2023-03-13T03:38:00+09:00,3.2,�쐼,8.4,���쐼,10.5,81.2,0,1.5,6,7.5
2023-03-13T03:39:00+09:00,3.2,��쐼,8.4,���쐼,10.5,81.2,0,1.5,6,7.5
2023-03-13T03:40:00+09:00,2.8,��쐼,7.4,��,10.6,81,0,1.5,6,7.5
2023-03-13T03:41:00+09:00,2.5,��쐼,6.1,���쐼,10.7,80.7,0,1.5,6,7.5
2023-03-13T03:42:00+09:00,2.5,��쐼,5.6,��쐼,10.6,80.2,0,1.5,6,7.5
2023-03-13T03:43:00+09:00,2.4,��쐼,5.6,��쐼,10.6,79.8,0,1.5,6,7.5
2023-03-13T03:44:00+09:00,2.3,��쐼,5.6,��쐼,10.6,80.1,0,1,6,7.5
2023-03-13T03:45:00+09:00,2.3,��쐼,5.6,��쐼,10.5,80.1,0,1,6,7.5
2023-03-13T03:46:00+09:00,2.3,�쐼,4.2,�쐼,10.4,80.3,0,1,6,7.5
2023-03-13T03:47:00+09:00,2.3,��쐼,4.2,�쐼,10.3,80.6,0,1,6,7.5
2023-03-13T03:48:00+09:00,2.2,��쐼,4.2,�쐼,10.3,81.4,0,1,6,7.5
2023-03-13T03:49:00+09:00,2.1,��쐼,4.2,�쐼,10.3,82,0,0.5,6,7.5
2023-03-13T03:50:00+09:00,2,��쐼,4.2,�쐼,10.2,82.6,0,0.5,6,7.5
2023-03-13T03:51:00+09:00,1.9,��,4,�쐼,10,82.4,0,0.5,6,7.5
2023-03-13T03:52:00+09:00,1.7,��,3.6,��쐼,10.1,83.4,0,0.5,6,7.5
2023-03-13T03:53:00+09:00,1.7,��,3.6,��쐼,10.1,83.8,0,0.5,6,7.5
2023-03-13T03:54:00+09:00,1.8,��,3.6,��쐼,10.1,84.1,0,0.5,6,7.5
2023-03-13T03:55:00+09:00,1.9,��,4.1,��,10,83.8,0,0,6,7.5
2023-03-13T03:56:00+09:00,1.9,��,4.1,��,10,83.9,0,0,6,7.5
2023-03-13T03:57:00+09:00,1.9,��,4.1,��,10,84.2,0,0,6,7.5
2023-03-13T03:58:00+09:00,1.9,��,4.1,��,10,84.6,0,0,6,7.5
2023-03-13T03:59:00+09:00,2,��,4.1,��,10,84.4,0,0,6,7.5
2023-03-13T04:00:00+09:00,2.1,��,4.1,��,9.9,84.4,0,0,6,7.5
2023-03-13T04:01:00+09:00,2.1,��,4.1,��,9.8,84.7,0,0,6,7.5
2023-03-13T04:02:00+09:00,2.2,��,4.1,��,9.8,84.6,0,0,6,7.5
2023-03-13T04:03:00+09:00,2.1,��,4.1,��,9.7,84.8,0,0,6,7.5
2023-03-13T04:04:00+09:00,2.1,��,4.1,��,9.7,85.2,0,0,6,7.5
2023-03-13T04:05:00+09:00,2.1,��,4.5,��,9.8,85.5,0,0,6,7.5
2023-03-13T04:06:00+09:00,2,��쓌,4.5,��,9.8,85.4,0,0,6,7.5
2023-03-13T04:07:00+09:00,2.1,��쓌,4.5,��,9.8,85.4,0,0,6,7.5
2023-03-13T04:08:00+09:00,2.1,��쓌,4.5,��,9.8,85.8,0,0,6,7.5
2023-03-13T04:09:00+09:00,2,��쓌,4.5,��,9.8,85.7,0,0,6,7.5
2023-03-13T04:10:00+09:00,1.9,��쓌,4.5,��,9.8,85.4,0,0,6,7.5
2023-03-13T04:11:00+09:00,1.9,��쓌,4.5,��,9.8,85.7,0,0,6,7.5
2023-03-13T04:12:00+09:00,1.8,��쓌,4.5,��,9.7,85.1,0,0,6,7.5
2023-03-13T04:13:00+09:00,1.9,��쓌,4.5,��,9.6,84.9,0,0,6,7.5
2023-03-13T04:14:00+09:00,1.8,��쓌,4.5,��,9.6,85.1,0,0,6,7.5
2023-03-13T04:15:00+09:00,1.7,��쓌,4.3,��,9.5,85.3,0,0,6,7.5
2023-03-13T04:16:00+09:00,1.7,��쓌,4,��,9.5,85.6,0,0,6,7.5
2023-03-13T04:17:00+09:00,1.6,��쓌,3.5,��쓌,9.5,85.5,0,0,6,7.5
2023-03-13T04:18:00+09:00,1.6,��쓌,3.5,��쓌,9.6,86.6,0,0,6,7.5
2023-03-13T04:19:00+09:00,1.6,��쓌,3.5,��쓌,9.5,86.2,0,0,6,7.5
2023-03-13T04:20:00+09:00,1.7,��쓌,3.5,��쓌,9.4,85.8,0,0,6,7.5
2023-03-13T04:21:00+09:00,1.7,��쓌,3.5,��쓌,9.4,86.1,0,0,6,7.5
2023-03-13T04:22:00+09:00,1.6,��쓌,3.5,��쓌,9.4,86.6,0,0,6,7.5
2023-03-13T04:23:00+09:00,1.5,��쓌,3.5,��쓌,9.4,86.8,0,0,6,7.5
2023-03-13T04:24:00+09:00,1.5,��쓌,3.5,��쓌,9.4,87,0,0,6,7.5
2023-03-13T04:25:00+09:00,1.3,��쓌,3.3,��,9.5,87.7,0,0,6,7.5
2023-03-13T04:26:00+09:00,1.2,��쓌,3.3,��,9.5,87.5,0.5,0.5,6.5,8
2023-03-13T04:27:00+09:00,1.1,��쓌,3.3,��,9.4,87.2,0.5,0.5,6.5,8
2023-03-13T04:28:00+09:00,1.2,��쓌,3.2,���쓌,9.3,87.4,0.5,0.5,6.5,8
2023-03-13T04:29:00+09:00,1.1,��,2.7,��쓌,9.2,87.2,0.5,0.5,6.5,8
2023-03-13T04:30:00+09:00,1,��쓌,2.5,��,9.2,88.1,0.5,0.5,6.5,8
2023-03-13T04:31:00+09:00,1,��쓌,2.9,��쓌,9.2,88.3,0.5,0.5,6.5,8
2023-03-13T04:32:00+09:00,1.1,��,2.9,��쓌,9.2,88.4,0.5,0.5,6.5,8
2023-03-13T04:33:00+09:00,1,��,2.9,��쓌,9.2,88.7,0.5,0.5,6.5,8
2023-03-13T04:34:00+09:00,1,��,2.9,��쓌,9.2,88.9,0.5,0.5,6.5,8
2023-03-13T04:35:00+09:00,1.1,��,2.9,��쓌,9,88.7,0.5,0.5,6.5,8
2023-03-13T04:36:00+09:00,1.1,��,2.9,��쓌,9.1,89,0,0.5,6.5,8
2023-03-13T04:37:00+09:00,1.2,��,2.9,��쓌,9.1,89.4,0,0.5,6.5,8
2023-03-13T04:38:00+09:00,1.2,��,2.9,��쓌,9.3,90.5,0,0.5,6.5,8
2023-03-13T04:39:00+09:00,1.2,��,2.9,��쓌,9.3,90.4,0,0.5,6.5,8
2023-03-13T04:40:00+09:00,1.3,��,2.9,��쓌,9.2,89.9,0,0.5,6.5,8
2023-03-13T04:41:00+09:00,1.2,��,2.8,��,9.1,89.4,0,0.5,6.5,8
2023-03-13T04:42:00+09:00,1.2,��,2.8,��,9,89.7,0,0.5,6.5,8
2023-03-13T04:43:00+09:00,1.2,��쐼,2.8,��,9,89.6,0,0.5,6.5,8
2023-03-13T04:44:00+09:00,1.1,��쐼,2.8,��,9,89.6,0,0.5,6.5,8
2023-03-13T04:45:00+09:00,1.1,��쐼,2.8,��,9,90,0,0.5,6.5,8
2023-03-13T04:46:00+09:00,1,��쐼,2.8,��,9,90.3,0,0.5,6.5,8
2023-03-13T04:47:00+09:00,0.9,��쐼,2.8,��,9.1,90.7,0,0.5,6.5,8
2023-03-13T04:48:00+09:00,0.8,��쐼,2.8,��,9.1,90.4,0,0.5,6.5,8
2023-03-13T04:49:00+09:00,0.7,��쐼,2.1,��쐼,9,90.1,0,0.5,6.5,8
2023-03-13T04:50:00+09:00,0.7,��쐼,2.3,��쓌,9,90.1,0,0.5,6.5,8
2023-03-13T04:51:00+09:00,0.8,��쐼,2.3,��쓌,9,90.5,0,0.5,6.5,8
2023-03-13T04:52:00+09:00,0.8,��쐼,2.3,��쓌,9,90.5,0,0.5,6.5,8
2023-03-13T04:53:00+09:00,0.9,��쐼,2.3,��쓌,9,90.3,0,0.5,6.5,8
2023-03-13T04:54:00+09:00,1,��쐼,2.3,��쓌,9,90.6,0,0.5,6.5,8
2023-03-13T04:55:00+09:00,1.1,��쐼,2.3,��쓌,8.9,90.4,0,0.5,6.5,8
2023-03-13T04:56:00+09:00,1.2,��쐼,2.3,��쓌,9,90.3,0,0.5,6.5,8
2023-03-13T04:57:00+09:00,1.3,��쐼,3.7,��쐼,9,90.3,0,0.5,6.5,8
2023-03-13T04:58:00+09:00,1.4,��쐼,3.7,��쐼,9,89.9,0,0.5,6.5,8
2023-03-13T04:59:00+09:00,1.6,��쐼,3.7,��쐼,9,90.1,0,0.5,6.5,8
2023-03-13T05:00:00+09:00,1.7,��쐼,4.1,��,9.1,90.5,0,0.5,6.5,8
2023-03-13T05:01:00+09:00,1.8,��쐼,4.2,��,9.1,89.9,0,0.5,6.5,8
2023-03-13T05:02:00+09:00,1.9,��쐼,4.2,��,9.1,89.9,0,0.5,6.5,8
2023-03-13T05:03:00+09:00,2,��쐼,4.7,��쓌,9.1,89.6,0,0.5,6.5,8
2023-03-13T05:04:00+09:00,2,��쐼,4.7,��쓌,9.2,89.3,0,0.5,6.5,8
2023-03-13T05:05:00+09:00,2.1,��,4.7,��쓌,9.2,89,0,0.5,6.5,8
2023-03-13T05:06:00+09:00,2.4,��,5.4,��쐼,9,88.2,0,0.5,6.5,8
2023-03-13T05:07:00+09:00,,,,,,,,,,
2023-03-13T05:08:00+09:00,,,,,,,,,,
2023-03-13T05:09:00+09:00,2.8,��,5.4,��쐼,9.1,87.9,0,0.5,6.5,8
2023-03-13T05:10:00+09:00,2.9,��,5.4,��쐼,9.2,87.5,0,0.5,6.5,8
2023-03-13T05:11:00+09:00,2.7,��,5.4,��쐼,9.2,87.4,0,0.5,6.5,8
2023-03-13T05:12:00+09:00,2.7,��,5.4,��쐼,9.2,87,0,0.5,6.5,8
2023-03-13T05:13:00+09:00,2.7,��,5.4,��쐼,9.2,86.4,0,0.5,6.5,8
2023-03-13T05:14:00+09:00,2.9,��쐼,5.4,��쐼,9.2,86.1,0,0.5,6.5,8
2023-03-13T05:15:00+09:00,3.1,��쐼,5.6,��쐼,9.1,85.7,0,0.5,6.5,8
2023-03-13T05:16:00+09:00,3,��쐼,5.6,��쐼,9.2,85.6,0,0.5,6.5,8
2023-03-13T05:17:00+09:00,2.8,��쐼,5.6,��쐼,9.1,85.4,0,0.5,6.5,8
2023-03-13T05:18:00+09:00,2.7,��쐼,5.6,��쐼,9.2,84.9,0,0.5,6.5,8
2023-03-13T05:19:00+09:00,2.6,��쐼,5.6,��쐼,9.2,85,0,0.5,6.5,8
2023-03-13T05:20:00+09:00,2.6,��,5.6,��쐼,9.2,84.7,0,0.5,6.5,8
2023-03-13T05:21:00+09:00,2.8,��,6.1,��,9.3,84.4,0,0.5,6.5,8
2023-03-13T05:22:00+09:00,3,��쐼,6.4,��,9.2,84.3,0,0.5,6.5,8
2023-03-13T05:23:00+09:00,3.2,��쐼,6.4,��,9.2,83.9,0,0.5,6.5,8
2023-03-13T05:24:00+09:00,3.3,��쐼,6.4,��,9.1,83.5,0,0.5,6.5,8
2023-03-13T05:25:00+09:00,3.3,��쐼,8,��쐼,9.2,83.6,0,0.5,6.5,8
2023-03-13T05:26:00+09:00,3.6,��쐼,8.2,�쐼,9.3,83.3,0,0,6.5,8
2023-03-13T05:27:00+09:00,3.8,��쐼,8.2,�쐼,9.3,83.3,0,0,6.5,8
2023-03-13T05:28:00+09:00,3.9,��쐼,8.2,�쐼,9.3,82.5,0,0,6.5,8
2023-03-13T05:29:00+09:00,4.1,��쐼,8.2,�쐼,9.3,82,0,0,6.5,8
2023-03-13T05:30:00+09:00,4.1,��쐼,8.2,�쐼,9.3,81.6,0,0,6.5,8
2023-03-13T05:31:00+09:00,4.2,��쐼,8.2,�쐼,9.3,81.2,0,0,6.5,8
2023-03-13T05:32:00+09:00,4.2,��쐼,8.2,�쐼,9.2,81.1,0,0,6.5,8
2023-03-13T05:33:00+09:00,4.3,��쐼,8.2,�쐼,9.2,81,0,0,6.5,8
2023-03-13T05:34:00+09:00,4.2,��쐼,8.2,�쐼,9.3,81.1,0,0,6.5,8
2023-03-13T05:35:00+09:00,4,��쐼,8.2,�쐼,9.3,81,0,0,6.5,8
2023-03-13T05:36:00+09:00,3.9,��쐼,9,��쐼,9.3,80.5,0,0,6.5,8
2023-03-13T05:37:00+09:00,3.9,��쐼,9,��쐼,9.3,80.4,0,0,6.5,8
2023-03-13T05:38:00+09:00,4.1,��쐼,9,��쐼,9.3,79.8,0,0,6.5,8
2023-03-13T05:39:00+09:00,4.2,��쐼,9,��쐼,9.3,79.8,0,0,6.5,8
2023-03-13T05:40:00+09:00,4.2,��쐼,9,��쐼,9.4,79.7,0,0,6.5,8
2023-03-13T05:41:00+09:00,4.1,��쐼,9,��쐼,9.3,79.4,0,0,6.5,8
2023-03-13T05:42:00+09:00,4.2,��쐼,9,��쐼,9.3,79.7,0,0,6.5,8
2023-03-13T05:43:00+09:00,4.1,��쐼,9,��쐼,9.3,80,0,0,6.5,8
2023-03-13T05:44:00+09:00,4.1,��쐼,9,��쐼,9.2,80.3,0,0,6.5,8
2023-03-13T05:45:00+09:00,4.3,��쐼,9,��쐼,9.2,80.2,0,0,6.5,8
2023-03-13T05:46:00+09:00,4.2,��쐼,8.2,��쐼,9.2,80.5,0,0,6.5,8
2023-03-13T05:47:00+09:00,4.1,��,8.2,��쐼,9.3,80.5,0,0,6.5,8
2023-03-13T05:48:00+09:00,3.8,��,6.9,��쐼,9.2,80.5,0,0,6.5,8
2023-03-13T05:49:00+09:00,3.6,��,6.9,��쐼,9.2,80.1,0,0,6.5,8
2023-03-13T05:50:00+09:00,3.5,��,6.9,��쐼,9.2,80.4,0,0,6.5,8
2023-03-13T05:51:00+09:00,3.6,��쐼,6.9,��쐼,9.3,80.2,0,0,6.5,8
2023-03-13T05:52:00+09:00,3.5,��쐼,6.9,��쐼,9.3,80.2,0,0,6.5,8
2023-03-13T05:53:00+09:00,3.6,��쐼,6.9,��쐼,9.3,80,0,0,6.5,8
2023-03-13T05:54:00+09:00,3.7,��쐼,6.9,��쐼,9.3,79.7,0,0,6.5,8
2023-03-13T05:55:00+09:00,3.6,��쐼,6.1,��,9.3,79.7,0,0,6.5,8
2023-03-13T05:56:00+09:00,3.4,��쐼,6.1,��,9.3,79.7,0,0,6.5,8
2023-03-13T05:57:00+09:00,3.4,��쐼,6.1,��,9.3,79.4,0,0,6.5,8
2023-03-13T05:58:00+09:00,3.3,��쐼,6.1,��,9.2,79.5,0,0,6.5,8
2023-03-13T05:59:00+09:00,3.3,��,6.1,��,9.2,80.1,0,0,6.5,8
2023-03-13T06:00:00+09:00,3.3,��,6.1,��,9.3,80.6,0,0,6.5,8
2023-03-13T06:01:00+09:00,3.2,��,6.1,��,9.3,80.5,0,0,6.5,8
2023-03-13T06:02:00+09:00,3.2,��,6.1,��,9.2,80.4,0,0,6.5,8
2023-03-13T06:03:00+09:00,2.9,��,6,��쐼,9.2,80.5,0,0,6.5,8
2023-03-13T06:04:00+09:00,2.8,��,5.9,��쐼,9.1,80.2,0,0,6.5,8
2023-03-13T06:05:00+09:00,2.6,��,5.4,��쐼,9,80.5,0,0,6.5,8
2023-03-13T06:06:00+09:00,2.8,��쐼,5.4,��쐼,9.1,81.1,0,0,6.5,8
2023-03-13T06:07:00+09:00,2.8,��쐼,6.6,��쐼,9.2,81.5,0,0,6.5,8
2023-03-13T06:08:00+09:00,2.8,��,6.6,��쐼,9.2,81.8,0,0,6.5,8
2023-03-13T06:09:00+09:00,2.7,��,6.6,��쐼,9.2,81.7,0,0,6.5,8
2023-03-13T06:10:00+09:00,2.5,��,6.6,��쐼,9.2,81.8,0,0,6.5,8
2023-03-13T06:11:00+09:00,2.4,��,6.6,��쐼,9.1,82,0,0,6.5,8
2023-03-13T06:12:00+09:00,2.3,��,6.6,��쐼,9.1,82.1,0,0,6.5,8
2023-03-13T06:13:00+09:00,2.2,��,6.6,��쐼,9,82.6,0,0,6.5,8
2023-03-13T06:14:00+09:00,2.2,��,6.6,��쐼,9,82.7,0,0,6.5,8
2023-03-13T06:15:00+09:00,2.1,��,6.6,��쐼,9.1,83.6,0,0,6.5,8
2023-03-13T06:16:00+09:00,2,��,6.6,��쐼,9.2,84.2,0,0,6.5,8
2023-03-13T06:17:00+09:00,2,��,4.9,��쐼,9.1,83.4,0,0,6.5,8
2023-03-13T06:18:00+09:00,2.2,��,5.8,��쓌,9,83.7,0,0,6.5,8
2023-03-13T06:19:00+09:00,2.4,��,5.8,��쓌,9.1,83.4,0,0,6.5,8
2023-03-13T06:20:00+09:00,2.5,��,5.8,��쓌,9.1,83.7,0,0,6.5,8
2023-03-13T06:21:00+09:00,2.6,��,5.8,��쓌,9.2,83.8,0,0,6.5,8
2023-03-13T06:22:00+09:00,2.6,��,5.8,��쓌,9.1,83.6,0,0,6.5,8